Time,TemperatureF,DewpointF,PressureIn,WindDirection,WindDirectionDegrees,WindSpeedMPH,WindSpeedGustMPH,Humidity,HourlyPrecipIn,Conditions,Clouds,dailyrainin,SolarRadiationWatts/m^2,SoftwareType,DateUTC
2013-01-28 00:21:00,74.0,64.0,29.99,SSE,148,11.0,17.0,71,0.00,,,0.00,0.000000,,2013-01-28 10:21:00,
2013-01-28 00:31:00,74.0,64.0,29.99,SSE,148,11.0,17.0,71,0.00,,,0.00,0.000000,,2013-01-28 10:31:00,
2013-01-28 00:41:00,74.0,64.0,29.99,SSE,148,11.0,17.0,71,0.00,,,0.00,0.000000,,2013-01-28 10:41:00,
2013-01-28 00:51:00,74.0,64.0,29.99,SSE,148,11.0,17.0,71,0.00,,,0.00,0.000000,,2013-01-28 10:51:00,
2013-01-28 01:11:00,76.0,65.0,29.97,SE,144,12.0,19.0,70,0.00,,,0.00,0.000000,,2013-01-28 11:11:00,
2013-01-28 01:22:00,76.0,65.0,29.97,SE,144,12.0,19.0,70,0.00,,,0.00,0.000000,,2013-01-28 11:22:00,
2013-01-28 01:32:00,76.0,65.0,29.97,SE,144,12.0,19.0,70,0.00,,,0.00,0.000000,,2013-01-28 11:32:00,
2013-01-28 01:42:00,76.0,65.0,29.97,SE,144,12.0,19.0,70,0.00,,,0.00,0.000000,,2013-01-28 11:42:00,
2013-01-28 01:52:00,76.0,65.0,29.97,SE,144,12.0,19.0,70,0.00,,,0.00,0.000000,,2013-01-28 11:52:00,
2013-01-28 02:11:00,76.0,64.0,29.96,SE,145,12.0,20.0,66,0.00,,,0.00,0.000000,,2013-01-28 12:11:00,
2013-01-28 02:23:00,76.0,64.0,29.96,SE,145,12.0,20.0,66,0.00,,,0.00,0.000000,,2013-01-28 12:23:00,
2013-01-28 02:32:00,76.0,64.0,29.96,SE,145,12.0,20.0,66,0.00,,,0.00,0.000000,,2013-01-28 12:32:00,
2013-01-28 02:42:00,76.0,64.0,29.96,SE,145,12.0,20.0,66,0.00,,,0.00,0.000000,,2013-01-28 12:42:00,
2013-01-28 02:52:00,76.0,64.0,29.96,SE,145,12.0,20.0,66,0.00,,,0.00,0.000000,,2013-01-28 12:52:00,
2013-01-28 03:22:00,76.0,64.0,29.95,SE,130,9.0,20.0,66,0.00,,,0.00,0.000000,,2013-01-28 13:22:00,
2013-01-28 03:33:00,76.0,64.0,29.95,SE,130,9.0,20.0,66,0.00,,,0.00,0.000000,,2013-01-28 13:33:00,
2013-01-28 03:42:00,76.0,64.0,29.95,SE,130,9.0,20.0,66,0.00,,,0.00,0.000000,,2013-01-28 13:42:00,
2013-01-28 03:52:00,76.0,64.0,29.95,SE,130,9.0,20.0,66,0.00,,,0.00,0.000000,,2013-01-28 13:52:00,
2013-01-28 04:12:00,76.0,64.0,29.94,SE,127,11.0,17.0,66,0.00,,,0.00,0.000000,,2013-01-28 14:12:00,
2013-01-28 04:22:00,76.0,64.0,29.94,SE,127,11.0,17.0,66,0.00,,,0.00,0.000000,,2013-01-28 14:22:00,
2013-01-28 04:32:00,76.0,64.0,29.94,SE,127,11.0,17.0,66,0.00,,,0.00,0.000000,,2013-01-28 14:32:00,
2013-01-28 04:42:00,76.0,64.0,29.94,SE,127,11.0,17.0,66,0.00,,,0.00,0.000000,,2013-01-28 14:42:00,
2013-01-28 04:52:00,76.0,64.0,29.94,SE,127,11.0,17.0,66,0.00,,,0.00,0.000000,,2013-01-28 14:52:00,
2013-01-28 05:23:00,76.0,63.0,29.94,SE,130,11.0,19.0,65,0.00,,,0.00,0.000000,,2013-01-28 15:23:00,
2013-01-28 05:33:00,76.0,63.0,29.94,SE,130,11.0,19.0,65,0.00,,,0.00,0.000000,,2013-01-28 15:33:00,
2013-01-28 05:42:00,76.0,63.0,29.94,SE,130,11.0,19.0,65,0.00,,,0.00,0.000000,,2013-01-28 15:42:00,
2013-01-28 05:52:00,76.0,63.0,29.94,SE,130,11.0,19.0,65,0.00,,,0.00,0.000000,,2013-01-28 15:52:00,
2013-01-28 06:22:00,76.0,63.0,29.94,ESE,119,11.0,19.0,64,0.00,,,0.00,0.000000,,2013-01-28 16:22:00,
2013-01-28 06:32:00,76.0,63.0,29.94,ESE,119,11.0,19.0,64,0.00,,,0.00,0.000000,,2013-01-28 16:32:00,
2013-01-28 06:42:00,76.0,63.0,29.94,ESE,119,11.0,19.0,64,0.00,,,0.00,0.000000,,2013-01-28 16:42:00,
2013-01-28 06:52:00,76.0,63.0,29.94,ESE,119,11.0,19.0,64,0.00,,,0.00,0.000000,,2013-01-28 16:52:00,
2013-01-28 07:12:00,74.0,62.0,29.96,ESE,122,9.0,19.0,67,0.00,,,0.00,0.000000,,2013-01-28 17:12:00,
2013-01-28 07:22:00,74.0,62.0,29.96,ESE,122,9.0,19.0,67,0.00,,,0.00,0.000000,,2013-01-28 17:22:00,
2013-01-28 07:32:00,74.0,62.0,29.96,ESE,122,9.0,19.0,67,0.00,,,0.00,0.000000,,2013-01-28 17:32:00,
2013-01-28 07:41:00,74.0,62.0,29.96,ESE,122,9.0,19.0,67,0.00,,,0.00,0.000000,,2013-01-28 17:41:00,
2013-01-28 07:52:00,74.0,62.0,29.96,ESE,122,9.0,19.0,67,0.00,,,0.00,0.000000,,2013-01-28 17:52:00,
2013-01-28 08:23:00,74.0,65.0,29.98,NE,56,5.0,16.0,73,0.00,,,0.00,10.000000,,2013-01-28 18:23:00,
2013-01-28 08:33:00,74.0,65.0,29.98,NE,56,5.0,16.0,73,0.00,,,0.00,10.000000,,2013-01-28 18:33:00,
2013-01-28 08:42:00,74.0,65.0,29.98,NE,56,5.0,16.0,73,0.00,,,0.00,10.000000,,2013-01-28 18:42:00,
2013-01-28 08:52:00,74.0,65.0,29.98,NE,56,5.0,16.0,73,0.00,,,0.00,10.000000,,2013-01-28 18:52:00,
2013-01-28 09:22:00,73.0,65.0,30.00,NNE,15,4.0,9.0,76,0.00,,,0.00,95.000000,,2013-01-28 19:22:00,
2013-01-28 09:32:00,73.0,65.0,30.00,NNE,15,4.0,9.0,76,0.00,,,0.00,95.000000,,2013-01-28 19:32:00,
2013-01-28 09:42:00,73.0,65.0,30.00,NNE,15,4.0,9.0,76,0.00,,,0.00,95.000000,,2013-01-28 19:42:00,
2013-01-28 09:52:00,73.0,65.0,30.00,NNE,15,4.0,9.0,76,0.00,,,0.00,95.000000,,2013-01-28 19:52:00,
2013-01-28 10:22:00,69.0,60.0,30.01,NNW,346,7.0,25.0,74,0.27,,,0.27,93.000000,,2013-01-28 20:22:00,
2013-01-28 10:33:00,69.0,60.0,30.01,NNW,346,7.0,25.0,74,0.27,,,0.27,93.000000,,2013-01-28 20:33:00,
2013-01-28 10:42:00,69.0,60.0,30.01,NNW,346,7.0,25.0,74,0.27,,,0.27,93.000000,,2013-01-28 20:42:00,
2013-01-28 10:52:00,69.0,60.0,30.01,NNW,346,7.0,25.0,74,0.27,,,0.27,93.000000,,2013-01-28 20:52:00,
2013-01-28 11:22:00,70.0,64.0,30.00,NNE,21,8.0,15.0,82,0.06,,,0.33,141.000000,,2013-01-28 21:22:00,
2013-01-28 11:33:00,70.0,64.0,30.00,NNE,21,8.0,15.0,82,0.06,,,0.33,141.000000,,2013-01-28 21:33:00,
2013-01-28 11:42:00,70.0,64.0,30.00,NNE,21,8.0,15.0,82,0.06,,,0.33,141.000000,,2013-01-28 21:42:00,
2013-01-28 11:52:00,70.0,64.0,30.00,NNE,21,8.0,15.0,82,0.06,,,0.33,141.000000,,2013-01-28 21:52:00,
2013-01-28 12:22:00,77.0,68.0,29.98,North,4,6.0,13.0,73,0.00,,,0.33,569.000000,,2013-01-28 22:22:00,
2013-01-28 12:32:00,77.0,68.0,29.98,North,4,6.0,13.0,73,0.00,,,0.33,569.000000,,2013-01-28 22:32:00,
2013-01-28 12:42:00,77.0,68.0,29.98,North,4,6.0,13.0,73,0.00,,,0.33,569.000000,,2013-01-28 22:42:00,
2013-01-28 12:52:00,77.0,68.0,29.98,North,4,6.0,13.0,73,0.00,,,0.33,569.000000,,2013-01-28 22:52:00,
2013-01-28 13:11:00,79.0,66.0,29.96,NW,313,7.0,13.0,64,0.00,,,0.33,592.000000,,2013-01-28 23:11:00,
2013-01-28 13:22:00,79.0,66.0,29.96,NW,313,7.0,13.0,64,0.00,,,0.33,592.000000,,2013-01-28 23:22:00,
2013-01-28 13:32:00,79.0,66.0,29.96,NW,313,7.0,13.0,64,0.00,,,0.33,592.000000,,2013-01-28 23:32:00,
2013-01-28 13:42:00,79.0,66.0,29.96,NW,313,7.0,13.0,64,0.00,,,0.33,592.000000,,2013-01-28 23:42:00,
2013-01-28 13:52:00,79.0,66.0,29.96,NW,313,7.0,13.0,64,0.00,,,0.33,592.000000,,2013-01-28 23:52:00,
2013-01-28 14:12:00,73.0,64.0,29.93,NE,40,6.0,14.0,73,0.10,,,0.43,320.000000,,2013-01-29 00:12:00,
2013-01-28 14:22:00,73.0,64.0,29.93,NE,40,6.0,14.0,73,0.10,,,0.43,320.000000,,2013-01-29 00:22:00,
2013-01-28 14:32:00,73.0,64.0,29.93,NE,40,6.0,14.0,73,0.10,,,0.43,320.000000,,2013-01-29 00:32:00,
2013-01-28 14:41:00,73.0,64.0,29.93,NE,40,6.0,14.0,73,0.10,,,0.43,320.000000,,2013-01-29 00:41:00,
2013-01-28 14:51:00,73.0,64.0,29.93,NE,40,6.0,14.0,73,0.10,,,0.43,320.000000,,2013-01-29 00:51:00,
2013-01-28 15:11:00,74.0,67.0,29.91,NW,322,6.0,12.0,78,0.00,,,-99.99,367.000000,,2013-01-29 01:11:00,
2013-01-28 15:22:00,74.0,67.0,29.91,NW,322,6.0,12.0,78,0.00,,,-99.99,367.000000,,2013-01-29 01:22:00,
2013-01-28 15:32:00,74.0,67.0,29.91,NW,322,6.0,12.0,78,0.00,,,-99.99,367.000000,,2013-01-29 01:32:00,
2013-01-28 15:42:00,74.0,67.0,29.91,NW,322,6.0,12.0,78,0.00,,,-99.99,367.000000,,2013-01-29 01:42:00,
2013-01-28 15:52:00,74.0,67.0,29.91,NW,322,6.0,12.0,78,0.00,,,-99.99,367.000000,,2013-01-29 01:52:00,
2013-01-28 16:11:00,78.0,66.0,29.92,ESE,113,2.0,10.0,67,0.00,,,0.43,342.000000,,2013-01-29 02:11:00,
2013-01-28 16:21:00,78.0,66.0,29.92,ESE,113,2.0,10.0,67,0.00,,,0.43,342.000000,,2013-01-29 02:21:00,
2013-01-28 16:32:00,78.0,66.0,29.92,ESE,113,2.0,10.0,67,0.00,,,0.43,342.000000,,2013-01-29 02:32:00,
2013-01-28 16:41:00,78.0,66.0,29.92,ESE,113,2.0,10.0,67,0.00,,,0.43,342.000000,,2013-01-29 02:41:00,
2013-01-28 16:52:00,78.0,66.0,29.92,ESE,113,2.0,10.0,67,0.00,,,0.43,342.000000,,2013-01-29 02:52:00,
2013-01-28 17:21:00,75.0,64.0,29.93,SE,134,2.0,5.0,68,0.00,,,0.43,142.000000,,2013-01-29 03:21:00,
2013-01-28 17:31:00,75.0,64.0,29.93,SE,134,2.0,5.0,68,0.00,,,0.43,142.000000,,2013-01-29 03:31:00,
2013-01-28 17:42:00,75.0,64.0,29.93,SE,134,2.0,5.0,68,0.00,,,0.43,142.000000,,2013-01-29 03:42:00,
2013-01-28 17:52:00,75.0,64.0,29.93,SE,134,2.0,5.0,68,0.00,,,0.43,142.000000,,2013-01-29 03:52:00,
2013-01-28 18:11:00,75.0,66.0,29.94,SE,137,4.0,7.0,74,0.00,,,0.43,49.000000,,2013-01-29 04:11:00,
2013-01-28 18:21:00,75.0,66.0,29.94,SE,137,4.0,7.0,74,0.00,,,0.43,49.000000,,2013-01-29 04:21:00,
2013-01-28 18:32:00,75.0,66.0,29.94,SE,137,4.0,7.0,74,0.00,,,0.43,49.000000,,2013-01-29 04:32:00,
2013-01-28 18:41:00,75.0,66.0,29.94,SE,137,4.0,7.0,74,0.00,,,0.43,49.000000,,2013-01-29 04:41:00,
2013-01-28 18:51:00,75.0,66.0,29.94,SE,137,4.0,7.0,74,0.00,,,0.43,49.000000,,2013-01-29 04:51:00,
2013-01-28 19:21:00,73.0,65.0,29.96,SSW,200,7.0,12.0,76,0.00,,,-99.99,2.000000,,2013-01-29 05:21:00,
2013-01-28 19:32:00,73.0,65.0,29.96,SSW,200,7.0,12.0,76,0.00,,,-99.99,2.000000,,2013-01-29 05:32:00,
2013-01-28 19:42:00,73.0,65.0,29.96,SSW,200,7.0,12.0,76,0.00,,,-99.99,2.000000,,2013-01-29 05:42:00,
2013-01-28 19:52:00,73.0,65.0,29.96,SSW,200,7.0,12.0,76,0.00,,,-99.99,2.000000,,2013-01-29 05:52:00,
2013-01-28 20:11:00,75.0,60.0,29.96,ESE,120,9.0,17.0,59,0.00,,,0.43,0.000000,,2013-01-29 06:11:00,
2013-01-28 20:21:00,75.0,60.0,29.96,ESE,120,9.0,17.0,59,0.00,,,0.43,0.000000,,2013-01-29 06:21:00,
2013-01-28 20:31:00,75.0,60.0,29.96,ESE,120,9.0,17.0,59,0.00,,,0.43,0.000000,,2013-01-29 06:31:00,
2013-01-28 20:41:00,75.0,60.0,29.96,ESE,120,9.0,17.0,59,0.00,,,0.43,0.000000,,2013-01-29 06:41:00,
2013-01-28 20:52:00,75.0,60.0,29.96,ESE,120,9.0,17.0,59,0.00,,,0.43,0.000000,,2013-01-29 06:52:00,
2013-01-28 21:21:00,75.0,58.0,29.97,ESE,120,8.0,14.0,55,0.00,,,0.43,0.000000,,2013-01-29 07:21:00,
2013-01-28 21:31:00,75.0,58.0,29.97,ESE,120,8.0,14.0,55,0.00,,,0.43,0.000000,,2013-01-29 07:31:00,
2013-01-28 21:41:00,75.0,58.0,29.97,ESE,120,8.0,14.0,55,0.00,,,0.43,0.000000,,2013-01-29 07:41:00,
2013-01-28 21:51:00,75.0,58.0,29.97,ESE,120,8.0,14.0,55,0.00,,,0.43,0.000000,,2013-01-29 07:51:00,
2013-01-28 22:11:00,76.0,62.0,29.98,SSE,152,7.0,15.0,61,0.00,,,0.43,0.000000,,2013-01-29 08:11:00,
2013-01-28 22:21:00,76.0,62.0,29.98,SSE,152,7.0,15.0,61,0.00,,,0.43,0.000000,,2013-01-29 08:21:00,
2013-01-28 22:31:00,76.0,62.0,29.98,SSE,152,7.0,15.0,61,0.00,,,0.43,0.000000,,2013-01-29 08:31:00,
2013-01-28 22:41:00,76.0,62.0,29.98,SSE,152,7.0,15.0,61,0.00,,,0.43,0.000000,,2013-01-29 08:41:00,
2013-01-28 22:51:00,76.0,62.0,29.98,SSE,152,7.0,15.0,61,0.00,,,0.43,0.000000,,2013-01-29 08:51:00,
2013-01-28 23:21:00,75.0,64.0,29.98,South,177,5.0,11.0,68,0.00,,,0.43,0.000000,,2013-01-29 09:21:00,
2013-01-28 23:31:00,75.0,64.0,29.98,South,177,5.0,11.0,68,0.00,,,0.43,0.000000,,2013-01-29 09:31:00,
2013-01-28 23:42:00,75.0,64.0,29.98,South,177,5.0,11.0,68,0.00,,,0.43,0.000000,,2013-01-29 09:42:00,
2013-01-28 23:51:00,75.0,64.0,29.98,South,177,5.0,11.0,68,0.00,,,0.43,0.000000,,2013-01-29 09:51:00,